Weather History for Frenchville, ME

Change the Weather History Date:

Thursday, January 24, 2013

  Actual Average Record
Temperature  
Mean Temperature -7 °F 8 °F  
Max Temperature -4 °F 17 °F 46 °F (1999)
Min Temperature -11 °F 0 °F -17 °F (2011)
Degree Days  
Heating Degree Days 72    
Month to date heating degree days 1335  
Since 1 July heating degree days 4746  
Cooling Degree Days 0    
Month to date cooling degree days 0  
Year to date cooling degree days 0  
Moisture  
Dew Point -16 °F    
Average Humidity 68    
Maximum Humidity 77    
Minimum Humidity 54    
Precipitation  
Precipitation T in 0.03 in 0.23 in (1999)
Month to date precipitation 0.21 1.52  
Year to date precipitation 0.21 1.52  
Sea Level Pressure  
Sea Level Pressure 29.70 in    
Wind  
Wind Speed 16 mph (WNW)    
Max Wind Speed 26 mph    
Max Gust Speed 37 mph    
Visibility 5 miles    
Events Snow    
T = Trace of Precipitation, MM = Missing Value Source: NWS Daily Summary

Daily Weather History Graph

Daily Weather History Graph

Search for Another Location

Airport:

Trip Planner

Search our weather history database for the weather conditions in past years. The results will help you decide how hot, cold, wet, or windy it might be!

Date:

Astronomy

Jan. 24, 2013 Rise Set
Actual Time 7:07 AM EST 4:23 PM EST
Civil Twilight 6:34 AM EST 4:57 PM EST
Nautical Twilight 5:57 AM EST 5:34 PM EST
Astronomical Twilight 5:20 AM EST 6:10 PM EST
Moon 2:20 PM EST (1/24) 5:05 AM EST (1/24)
Length of Visible Light 10h 22m
Length of Day
9h 15m
Waxing Gibbous, 94% of the Moon is Illuminated
Jan 24
Waxing Gibbous
Jan 26
Full
Feb 3
Last Quarter
Feb 10
New
Feb 17
First Quarter

Hourly Weather History & Observations

Time (EST) Temp. Windchill Dew Point Humidity Pressure Visibility Wind Dir Wind Speed Gust Speed Precip Events Conditions
12:53 AM -9.9 °F -32.8 °F -17.0 °F 71% 29.71 in 6.0 mi West 16.1 mph 24.2 mph 0.00 in   Scattered Clouds
1:25 AM -9.4 °F -32.8 °F -16.6 °F 71% 29.62 in 4.0 mi West 17.3 mph 27.6 mph N/A   Haze
1:49 AM -9.4 °F -32.1 °F -16.6 °F 71% 29.63 in 5.0 mi WNW 16.1 mph 26.5 mph 0.00 in   Haze
1:53 AM -9.0 °F -33.0 °F -16.1 °F 71% 29.72 in 5.0 mi West 18.4 mph 26.5 mph 0.00 in   Haze
2:53 AM -9.0 °F -35.3 °F -16.1 °F 71% 29.70 in 2.5 mi WNW 23.0 mph 35.7 mph 0.00 in   Overcast
3:19 AM -9.4 °F -36.3 °F -16.6 °F 71% 29.61 in 3.0 mi WNW 24.2 mph 33.4 mph 0.00 in   Overcast
3:41 AM -9.4 °F -34.1 °F -16.6 °F 71% 29.62 in 3.0 mi West 19.6 mph 28.8 mph 0.00 in   Overcast
3:53 AM -9.0 °F -33.6 °F -16.1 °F 71% 29.70 in 4.0 mi West 19.6 mph - 0.00 in   Haze
4:38 AM -9.4 °F -32.8 °F -16.6 °F 71% 29.62 in 5.0 mi West 17.3 mph - 0.00 in   Haze
4:53 AM -11.0 °F -34.2 °F -17.0 °F 75% 29.71 in 5.0 mi WNW 16.1 mph - 0.00 in   Haze
5:53 AM -9.9 °F -30.5 °F -17.0 °F 71% 29.70 in 7.0 mi West 12.7 mph 21.9 mph 0.00 in   Mostly Cloudy
6:31 AM -11.2 °F -31.1 °F -16.6 °F 77% 29.62 in 2.5 mi West 11.5 mph - 0.00 in Snow Light Snow
6:53 AM -9.9 °F -31.3 °F -16.1 °F 74% 29.72 in 3.0 mi West 13.8 mph 20.7 mph 0.00 in   Haze
7:05 AM -9.4 °F -29.8 °F -16.6 °F 71% 29.62 in 2.5 mi West 12.7 mph 21.9 mph 0.00 in Snow Light Snow
7:18 AM -9.4 °F -32.1 °F -16.6 °F 71% 29.63 in 1.8 mi West 16.1 mph 20.7 mph 0.00 in   Haze
7:28 AM -9.4 °F -30.6 °F -16.6 °F 71% 29.63 in 2.5 mi West 13.8 mph 24.2 mph 0.00 in   Haze
7:45 AM -9.4 °F -33.5 °F -16.6 °F 71% 29.63 in 1.8 mi West 18.4 mph 26.5 mph 0.00 in   Haze
7:53 AM -9.0 °F -32.4 °F -16.1 °F 71% 29.73 in 2.0 mi West 17.3 mph - 0.00 in   Haze
8:13 AM -9.4 °F -32.8 °F -14.8 °F 77% 29.63 in 1.8 mi West 17.3 mph 26.5 mph 0.00 in   Overcast
8:23 AM -9.4 °F -33.5 °F -14.8 °F 77% 29.63 in 2.0 mi West 18.4 mph - 0.00 in   Overcast
8:53 AM -8.0 °F -30.3 °F -14.1 °F 75% 29.73 in 2.0 mi WNW 16.1 mph - 0.00 in   Overcast
9:28 AM -7.6 °F -29.8 °F -14.8 °F 71% 29.64 in 1.8 mi WNW 16.1 mph 26.5 mph 0.00 in   Overcast
9:37 AM -7.6 °F -31.1 °F -14.8 °F 71% 29.65 in 2.0 mi West 18.4 mph 25.3 mph 0.00 in   Overcast
9:45 AM -7.6 °F -31.1 °F -14.8 °F 71% 29.64 in 1.5 mi WNW 18.4 mph 26.5 mph 0.00 in   Overcast
9:53 AM -7.1 °F -28.4 °F -14.1 °F 72% 29.74 in 1.5 mi WNW 15.0 mph 26.5 mph 0.00 in   Overcast
10:08 AM -5.8 °F -24.4 °F -13.0 °F 71% 29.65 in 1.2 mi WNW 11.5 mph 18.4 mph 0.00 in   Haze
10:39 AM -5.8 °F -29.4 °F -14.8 °F 65% 29.64 in 1.8 mi NW 19.6 mph 28.8 mph 0.00 in   Overcast
10:45 AM -5.8 °F -27.5 °F -14.8 °F 65% 29.64 in 3.0 mi NW 16.1 mph 29.9 mph 0.00 in   Haze
10:53 AM -5.1 °F -26.6 °F -15.0 °F 62% 29.73 in 3.0 mi NW 16.1 mph 25.3 mph 0.00 in   Haze
11:32 AM -5.8 °F -26.8 °F -14.8 °F 65% 29.64 in 2.5 mi NW 15.0 mph 23.0 mph 0.00 in   Overcast
11:43 AM -5.8 °F -28.8 °F -13.0 °F 71% 29.64 in 1.5 mi NNW 18.4 mph 27.6 mph 0.00 in   Overcast
11:51 AM -5.8 °F -28.8 °F -14.8 °F 65% 29.64 in 1.0 mi NW 18.4 mph 27.6 mph 0.00 in Snow Light Snow
11:53 AM -6.0 °F -27.0 °F -14.1 °F 68% 29.73 in 1.0 mi NW 15.0 mph 24.2 mph 0.00 in Snow Light Snow
12:00 PM -5.8 °F -26.0 °F -14.8 °F 65% 29.64 in 1.8 mi NNW 13.8 mph 24.2 mph 0.00 in Snow Light Snow
12:06 PM -5.8 °F -27.5 °F -16.6 °F 60% 29.64 in 3.0 mi NW 16.1 mph 23.0 mph 0.00 in   Haze
12:36 PM -5.8 °F -27.5 °F -16.6 °F 60% 29.64 in 7.0 mi NNW 16.1 mph 28.8 mph 0.00 in   Overcast
12:45 PM -5.8 °F -29.4 °F -14.8 °F 65% 29.64 in 2.5 mi NNW 19.6 mph 28.8 mph 0.00 in   Overcast
12:53 PM -6.0 °F -29.0 °F -15.0 °F 65% 29.73 in 2.0 mi NNW 18.4 mph 29.9 mph 0.00 in   Overcast
12:57 PM -5.8 °F -27.5 °F -14.8 °F 65% 29.64 in 3.0 mi NNW 16.1 mph 27.6 mph 0.00 in   Overcast
1:29 PM -7.6 °F -29.8 °F -16.6 °F 65% 29.65 in 9.0 mi NW 16.1 mph 23.0 mph 0.00 in   Overcast
1:53 PM -5.1 °F -27.2 °F -18.0 °F 54% 29.74 in 8.0 mi NW 17.3 mph 29.9 mph 0.00 in   Overcast
2:53 PM -6.0 °F -29.0 °F -17.0 °F 59% 29.77 in 10.0 mi NW 18.4 mph 23.0 mph N/A   Overcast
3:00 PM -7.6 °F -27.5 °F -16.6 °F 65% 29.68 in 10.0 mi NW 12.7 mph 23.0 mph N/A   Overcast
3:28 PM -5.8 °F -29.4 °F -18.4 °F 55% 29.68 in 10.0 mi WNW 19.6 mph 23.0 mph N/A   Scattered Clouds
3:53 PM -6.0 °F -30.7 °F -18.0 °F 56% 29.77 in 10.0 mi WNW 21.9 mph 25.3 mph N/A   Clear
4:53 PM -7.1 °F -25.9 °F -17.0 °F 62% 29.80 in 10.0 mi NW 11.5 mph - N/A   Clear
5:53 PM -8.0 °F -27.1 °F -17.0 °F 65% 29.81 in 10.0 mi WNW 11.5 mph - N/A   Clear
6:38 PM -9.4 °F -29.8 °F -16.6 °F 71% 29.74 in 9.0 mi WNW 12.7 mph - N/A   Mostly Cloudy
6:53 PM -9.0 °F -28.4 °F -16.1 °F 71% 29.84 in 10.0 mi WNW 11.5 mph 19.6 mph N/A   Mostly Cloudy
7:04 PM -9.4 °F -27.9 °F -16.6 °F 71% 29.75 in 10.0 mi WNW 10.4 mph - N/A   Scattered Clouds
7:53 PM -9.0 °F -30.9 °F -17.0 °F 68% 29.86 in 10.0 mi WNW 15.0 mph 24.2 mph N/A   Clear
8:53 PM -9.0 °F -31.7 °F -18.0 °F 65% 29.86 in 10.0 mi WNW 16.1 mph 24.2 mph N/A   Clear
9:53 PM -9.0 °F -30.9 °F -17.0 °F 68% 29.88 in 10.0 mi WNW 15.0 mph 21.9 mph N/A   Clear
10:53 PM -7.6 °F -29.1 °F -16.6 °F 65% 29.79 in 10.0 mi WNW 15.0 mph 25.3 mph N/A   Clear
11:43 PM -7.6 °F -29.1 °F -14.8 °F 71% 29.80 in 10.0 mi West 15.0 mph 27.6 mph N/A   Mostly Cloudy
11:53 PM -8.0 °F -28.0 °F -15.0 °F 71% 29.89 in 9.0 mi WNW 12.7 mph - N/A   Overcast